RYR6D EIDW-LGTS

Flight info

Callsign RYR6D
Flight time N/A
Altitude 35000
Route DEXEN4E DEXEN UY124 AMPIT L15 BIG UL9 KONAN UL607 REMBA M624 DIK M150 KRH DCT UTABA L607 MOMUK DCT UMVEG/N0439F370 DCT VEKEN DCT NEMEK DCT TUPUS DCT MEDUX UM867 KOGAT DCT PEP DCT TALAS N130 ALIKO
Aircraft B738/M-SDE2E3FGHIRWXY/LB1

Departure

Time N/A
Airport Dublin Airport (EIDW)

Arrival

Time 2026-05-06 19:28
Airport Thessaloniki Macedonia International Airport (LGTS)
Time Latitude Longitude Altitude Speed Heading
2026-05-06 17:28 49.42632 7.38755 34801 ft 463 kts 121°
2026-05-06 17:28 49.41074 7.43147 34797 ft 463 kts 121°
2026-05-06 17:29 49.38021 7.51736 34792 ft 462 kts 121°
2026-05-06 17:29 49.34932 7.60397 34797 ft 462 kts 122°
2026-05-06 17:30 49.31836 7.69049 34797 ft 462 kts 122°
2026-05-06 17:30 49.28750 7.77647 34802 ft 462 kts 122°
2026-05-06 17:31 49.25647 7.86266 34808 ft 462 kts 122°
2026-05-06 17:31 49.22549 7.94896 34809 ft 462 kts 122°
2026-05-06 17:32 49.19452 8.03512 34809 ft 462 kts 122°
2026-05-06 17:32 49.16372 8.12052 34818 ft 461 kts 122°
2026-05-06 17:33 49.13268 8.20625 34808 ft 461 kts 122°
2026-05-06 17:33 49.10156 8.29192 34810 ft 461 kts 123°
2026-05-06 17:34 49.07009 8.37709 34824 ft 460 kts 123°
2026-05-06 17:34 49.03847 8.46199 34814 ft 460 kts 123°
2026-05-06 17:35 49.00666 8.54664 34824 ft 459 kts 127°
2026-05-06 17:35 48.96553 8.61929 34822 ft 450 kts 144°
2026-05-06 17:36 48.89176 8.70724 34832 ft 449 kts 146°
2026-05-06 17:36 48.84279 8.76539 34830 ft 450 kts 145°
2026-05-06 17:37 48.79376 8.82411 34824 ft 450 kts 145°
2026-05-06 17:37 48.74462 8.88304 34827 ft 450 kts 146°
2026-05-06 17:38 48.69541 8.94191 34836 ft 451 kts 146°
2026-05-06 17:38 48.64608 9.00075 34836 ft 451 kts 146°
2026-05-06 17:39 48.59703 9.05910 34831 ft 451 kts 146°
2026-05-06 17:39 48.54766 9.11769 34831 ft 451 kts 146°
2026-05-06 17:40 48.49821 9.17622 34838 ft 452 kts 146°
2026-05-06 17:40 48.44867 9.23471 34836 ft 452 kts 146°
2026-05-06 17:41 48.39910 9.29308 34849 ft 452 kts 146°
2026-05-06 17:41 48.34980 9.35100 34852 ft 452 kts 146°
2026-05-06 17:42 48.30014 9.40921 34851 ft 453 kts 146°
2026-05-06 17:42 48.25046 9.46747 34852 ft 453 kts 145°
2026-05-06 17:43 48.20220 9.52894 34851 ft 455 kts 143°
2026-05-06 17:43 48.15480 9.59129 34849 ft 455 kts 143°
2026-05-06 17:44 48.10702 9.65355 34855 ft 455 kts 144°
2026-05-06 17:44 48.08304 9.68454 34854 ft 455 kts 144°
2026-05-06 17:45 48.03602 9.74504 34856 ft 455 kts 144°
2026-05-06 17:45 47.98791 9.80677 34856 ft 455 kts 144°
2026-05-06 17:46 47.93980 9.86838 34860 ft 455 kts 144°
2026-05-06 17:46 47.89201 9.92946 34859 ft 455 kts 144°
2026-05-06 17:47 47.84591 9.99447 34855 ft 462 kts 134°
2026-05-06 17:47 47.81193 10.07685 34872 ft 473 kts 121°
2026-05-06 17:48 47.78410 10.16576 34860 ft 474 kts 120°
2026-05-06 17:48 47.75631 10.25474 34865 ft 474 kts 121°
2026-05-06 17:49 47.72810 10.34328 34871 ft 474 kts 121°
2026-05-06 17:49 47.69958 10.43167 34876 ft 475 kts 121°
2026-05-06 17:50 47.67113 10.51941 34869 ft 475 kts 121°
2026-05-06 17:50 47.64221 10.60833 34870 ft 475 kts 121°
2026-05-06 17:51 47.61358 10.69611 34857 ft 476 kts 122°
2026-05-06 17:51 47.58469 10.78439 34849 ft 476 kts 122°
2026-05-06 17:52 47.55565 10.87280 34835 ft 477 kts 122°
2026-05-06 17:52 47.52651 10.96121 34831 ft 478 kts 121°
2026-05-06 17:53 47.49730 11.04956 34815 ft 478 kts 122°
2026-05-06 17:53 47.46796 11.13798 34792 ft 479 kts 122°
2026-05-06 17:54 47.43850 11.22649 34790 ft 479 kts 122°
2026-05-06 17:54 47.40906 11.31460 34771 ft 481 kts 122°
2026-05-06 17:55 47.37934 11.40325 34767 ft 482 kts 122°
2026-05-06 17:55 47.34948 11.49201 34766 ft 483 kts 122°
2026-05-06 17:56 47.31958 11.58063 34767 ft 483 kts 123°
2026-05-06 17:56 47.28963 11.66910 34777 ft 482 kts 123°
2026-05-06 17:57 47.25968 11.75724 34772 ft 481 kts 123°
2026-05-06 17:57 47.22995 11.84451 34768 ft 479 kts 123°
2026-05-06 17:58 47.19891 11.93063 34783 ft 473 kts 128°
2026-05-06 17:58 47.16417 12.01207 34789 ft 467 kts 130°
2026-05-06 17:59 47.12885 12.09251 34804 ft 470 kts 129°
2026-05-06 17:59 47.09375 12.17322 34809 ft 473 kts 129°
2026-05-06 18:00 47.05847 12.25502 34825 ft 475 kts 129°
2026-05-06 18:00 47.02315 12.33693 34848 ft 475 kts 129°
2026-05-06 18:01 46.98789 12.41847 34813 ft 470 kts 129°
2026-05-06 18:01 46.95293 12.49904 34874 ft 468 kts 129°
2026-05-06 18:02 46.91784 12.57951 34854 ft 471 kts 129°
2026-05-06 18:02 46.88268 12.66000 34887 ft 466 kts 129°
2026-05-06 18:03 46.85343 12.72671 34870 ft 472 kts 129°
2026-05-06 18:03 46.81198 12.82100 34865 ft 475 kts 129°
2026-05-06 18:04 46.77619 12.90222 34866 ft 476 kts 129°
2026-05-06 18:04 46.74631 12.96986 34876 ft 477 kts 129°
2026-05-06 18:05 46.71031 13.05113 34878 ft 478 kts 129°
2026-05-06 18:05 46.66822 13.14582 34886 ft 478 kts 129°
2026-05-06 18:06 46.63784 13.21399 34879 ft 479 kts 129°
2026-05-06 18:06 46.60178 13.29468 34873 ft 478 kts 129°
2026-05-06 18:07 46.56553 13.37558 34873 ft 477 kts 129°
2026-05-06 18:07 46.52760 13.45478 34874 ft 476 kts 133°
2026-05-06 18:08 46.48819 13.53211 34872 ft 477 kts 133°
2026-05-06 18:08 46.44899 13.60909 34862 ft 477 kts 132°
2026-05-06 18:09 46.40969 13.68691 34879 ft 478 kts 132°
2026-05-06 18:09 46.37055 13.76458 34872 ft 477 kts 132°
2026-05-06 18:10 46.33147 13.84197 34872 ft 476 kts 131°
2026-05-06 18:10 46.29239 13.91910 34873 ft 474 kts 132°
2026-05-06 18:11 46.25337 13.99585 34885 ft 473 kts 132°
2026-05-06 18:11 46.21458 14.07194 34901 ft 473 kts 132°
2026-05-06 18:12 46.17555 14.14830 34892 ft 472 kts 131°
2026-05-06 18:12 46.13648 14.22453 34903 ft 472 kts 132°
2026-05-06 18:13 46.09738 14.30060 34910 ft 472 kts 132°
2026-05-06 18:13 46.05815 14.37672 34919 ft 473 kts 132°
2026-05-06 18:14 46.01910 14.45231 34913 ft 474 kts 132°
2026-05-06 18:14 45.97968 14.52839 34917 ft 474 kts 132°
2026-05-06 18:15 45.94010 14.60458 34917 ft 475 kts 132°
2026-05-06 18:15 45.90069 14.68025 34918 ft 475 kts 132°
2026-05-06 18:16 45.86105 14.75616 34931 ft 475 kts 132°
2026-05-06 18:16 45.82133 14.83200 34924 ft 476 kts 132°
2026-05-06 18:17 45.78137 14.90808 34923 ft 478 kts 132°
2026-05-06 18:17 45.74130 14.98419 34925 ft 479 kts 132°
2026-05-06 18:18 45.70103 15.06048 34930 ft 480 kts 132°
2026-05-06 18:18 45.66093 15.13626 34914 ft 481 kts 132°
2026-05-06 18:19 45.62041 15.21262 34910 ft 481 kts 132°
2026-05-06 18:19 45.57988 15.28882 34917 ft 481 kts 132°
2026-05-06 18:20 45.53796 15.36307 34915 ft 479 kts 135°
2026-05-06 18:20 45.49444 15.43486 34925 ft 478 kts 136°
2026-05-06 18:21 45.45097 15.50678 34923 ft 479 kts 135°
2026-05-06 18:21 45.40800 15.57859 34919 ft 480 kts 135°
2026-05-06 18:22 45.36476 15.65094 34922 ft 480 kts 135°
2026-05-06 18:22 45.32144 15.72320 34924 ft 480 kts 135°
2026-05-06 18:23 45.27800 15.79546 34920 ft 480 kts 135°
2026-05-06 18:23 45.23459 15.86747 34925 ft 479 kts 135°
2026-05-06 18:24 45.19213 15.93960 34920 ft 480 kts 133°
2026-05-06 18:24 45.15081 16.01419 34927 ft 481 kts 132°
2026-05-06 18:25 45.10962 16.08888 34928 ft 481 kts 132°
2026-05-06 18:25 45.06814 16.16329 34935 ft 481 kts 133°
2026-05-06 18:26 45.02646 16.23744 34933 ft 482 kts 133°
2026-05-06 18:26 44.98459 16.31164 34936 ft 483 kts 133°
2026-05-06 18:27 44.94262 16.38583 34933 ft 483 kts 133°
2026-05-06 18:27 44.90084 16.45953 34938 ft 485 kts 133°
2026-05-06 18:28 44.85862 16.53382 34938 ft 485 kts 134°
2026-05-06 18:28 44.81625 16.60817 34930 ft 486 kts 134°
2026-05-06 18:29 44.77380 16.68247 34949 ft 488 kts 134°
2026-05-06 18:29 44.73111 16.75698 34946 ft 490 kts 134°
2026-05-06 18:30 44.68811 16.83184 34936 ft 492 kts 134°
2026-05-06 18:30 44.64524 16.90630 34948 ft 494 kts 135°
2026-05-06 18:31 44.60197 16.98127 34946 ft 495 kts 135°
2026-05-06 18:31 44.55853 17.05632 34964 ft 495 kts 135°
2026-05-06 18:32 44.51496 17.13139 34952 ft 496 kts 135°
2026-05-06 18:32 44.47130 17.20644 34964 ft 496 kts 135°
2026-05-06 18:33 44.42796 17.28075 34960 ft 495 kts 135°
2026-05-06 18:33 44.38429 17.35541 34978 ft 495 kts 135°
2026-05-06 18:34 44.34051 17.43004 34973 ft 496 kts 135°
2026-05-06 18:34 44.29704 17.50396 34973 ft 495 kts 135°
2026-05-06 18:35 44.25327 17.57820 34974 ft 495 kts 135°
2026-05-06 18:35 44.20948 17.65230 34971 ft 494 kts 135°
2026-05-06 18:36 44.16579 17.72603 34980 ft 493 kts 135°
2026-05-06 18:36 44.12215 17.79949 34988 ft 492 kts 135°
2026-05-06 18:37 44.08584 17.86046 34982 ft 492 kts 135°
2026-05-06 18:37 44.03497 17.94567 34978 ft 492 kts 134°
2026-05-06 18:38 43.99116 18.01884 35003 ft 492 kts 134°
2026-05-06 18:38 43.94730 18.09192 35014 ft 493 kts 134°
2026-05-06 18:39 43.90331 18.16502 35018 ft 495 kts 134°
2026-05-06 18:40 43.83695 18.27497 35016 ft 496 kts 135°
2026-05-06 18:40 43.79279 18.34790 35016 ft 497 kts 135°
2026-05-06 18:41 43.74821 18.42134 35018 ft 498 kts 135°
2026-05-06 18:41 43.70346 18.49487 35021 ft 500 kts 135°
2026-05-06 18:42 43.65860 18.56840 35011 ft 500 kts 135°
2026-05-06 18:42 43.61389 18.64148 35018 ft 501 kts 135°
2026-05-06 18:43 43.56879 18.71503 35008 ft 503 kts 134°
2026-05-06 18:43 43.52355 18.78861 35008 ft 503 kts 134°
2026-05-06 18:44 43.47823 18.86214 35011 ft 503 kts 134°
2026-05-06 18:44 43.43314 18.93511 35025 ft 502 kts 135°
2026-05-06 18:45 43.38787 19.00822 35028 ft 502 kts 134°
2026-05-06 18:45 43.34245 19.08136 35019 ft 502 kts 134°
2026-05-06 18:46 43.29717 19.15407 35022 ft 500 kts 134°
2026-05-06 18:46 43.25193 19.22654 35027 ft 499 kts 134°
2026-05-06 18:47 43.20706 19.29824 35041 ft 499 kts 134°
2026-05-06 18:47 43.16183 19.37035 35031 ft 498 kts 134°
2026-05-06 18:48 43.11663 19.44222 35043 ft 498 kts 134°
2026-05-06 18:48 43.07136 19.51403 35041 ft 497 kts 134°
2026-05-06 18:49 43.02622 19.58547 35032 ft 496 kts 134°
2026-05-06 18:49 42.98106 19.65675 35051 ft 495 kts 134°
2026-05-06 18:50 42.93614 19.72749 35067 ft 495 kts 134°
2026-05-06 18:50 42.89088 19.79859 35052 ft 495 kts 134°
2026-05-06 18:51 42.84570 19.86940 35049 ft 494 kts 133°
2026-05-06 18:51 42.80049 19.94010 35053 ft 494 kts 133°
2026-05-06 18:52 42.75525 20.01067 35051 ft 495 kts 133°
2026-05-06 18:52 42.71101 20.08165 35045 ft 495 kts 131°
2026-05-06 18:53 42.66746 20.15423 35045 ft 495 kts 131°
2026-05-06 18:53 42.63125 20.21449 35050 ft 496 kts 131°
2026-05-06 18:54 42.58732 20.28698 35053 ft 497 kts 131°
2026-05-06 18:54 42.54329 20.35921 35039 ft 495 kts 131°
2026-05-06 18:55 42.49933 20.43111 35033 ft 495 kts 131°
2026-05-06 18:55 42.45538 20.50284 35032 ft 494 kts 131°
2026-05-06 18:56 42.41179 20.57385 35012 ft 479 kts 131°
2026-05-06 18:56 42.39083 20.60797 35019 ft 463 kts 131°
2026-05-06 18:56 42.37056 20.64092 35021 ft 447 kts 131°
2026-05-06 18:57 42.33118 20.70473 35047 ft 449 kts 132°
2026-05-06 18:57 42.29066 20.77020 35050 ft 454 kts 131°
2026-05-06 18:58 42.25035 20.83528 35026 ft 448 kts 131°
2026-05-06 18:58 42.21044 20.89958 34594 ft 444 kts 131°
2026-05-06 18:58 42.19092 20.93098 34275 ft 439 kts 131°
2026-05-06 18:59 42.17132 20.96250 33886 ft 436 kts 131°
2026-05-06 18:59 42.15186 20.99373 33476 ft 434 kts 131°
2026-05-06 18:59 42.13206 21.02430 33059 ft 430 kts 137°
2026-05-06 18:59 42.10945 21.05004 32704 ft 423 kts 147°
2026-05-06 19:00 42.08455 21.07065 32256 ft 418 kts 157°
2026-05-06 19:00 42.05789 21.08567 31893 ft 412 kts 162°
2026-05-06 19:00 42.03113 21.09917 31519 ft 410 kts 163°
2026-05-06 19:00 42.00443 21.11243 31151 ft 408 kts 163°
2026-05-06 19:01 41.97782 21.12568 30786 ft 406 kts 163°
2026-05-06 19:01 41.95142 21.13892 30433 ft 404 kts 162°
2026-05-06 19:01 41.92517 21.15217 30074 ft 403 kts 162°
2026-05-06 19:01 41.89895 21.16548 29666 ft 401 kts 162°
2026-05-06 19:02 41.87328 21.17854 29267 ft 398 kts 162°
2026-05-06 19:02 41.84714 21.19186 28889 ft 395 kts 162°
2026-05-06 19:02 41.82153 21.20491 28510 ft 392 kts 162°
2026-05-06 19:02 41.79648 21.21765 28153 ft 389 kts 162°
2026-05-06 19:03 41.77120 21.23050 27800 ft 386 kts 162°
2026-05-06 19:03 41.74618 21.24321 27446 ft 384 kts 162°
2026-05-06 19:03 41.72121 21.25588 27081 ft 382 kts 162°
2026-05-06 19:03 41.69647 21.26842 26704 ft 379 kts 163°
2026-05-06 19:04 41.67189 21.28087 26373 ft 375 kts 163°
2026-05-06 19:04 41.64751 21.29322 26019 ft 373 kts 163°
2026-05-06 19:04 41.62331 21.30547 25688 ft 371 kts 163°
2026-05-06 19:04 41.59920 21.31764 25337 ft 370 kts 163°
2026-05-06 19:05 41.57518 21.32975 24998 ft 368 kts 163°
2026-05-06 19:05 41.55126 21.34182 24647 ft 367 kts 163°
2026-05-06 19:05 41.52742 21.35383 24305 ft 366 kts 163°
2026-05-06 19:05 41.50365 21.36580 23966 ft 364 kts 163°
2026-05-06 19:06 41.47992 21.37774 23604 ft 363 kts 163°
2026-05-06 19:06 41.45664 21.38945 23209 ft 362 kts 163°
2026-05-06 19:06 41.43315 21.40126 22833 ft 360 kts 163°
2026-05-06 19:06 41.40980 21.41300 22477 ft 357 kts 163°
2026-05-06 19:07 41.38661 21.42463 22127 ft 355 kts 163°
2026-05-06 19:07 41.36360 21.43629 21778 ft 353 kts 160°
2026-05-06 19:07 41.34211 21.45245 21435 ft 355 kts 146°
2026-05-06 19:07 41.32367 21.47425 21170 ft 355 kts 133°
2026-05-06 19:08 41.30847 21.49991 20925 ft 353 kts 128°
2026-05-06 19:08 41.29398 21.52629 20684 ft 350 kts 127°
2026-05-06 19:08 41.27983 21.55243 20404 ft 347 kts 127°
2026-05-06 19:08 41.26588 21.57809 20079 ft 346 kts 127°
2026-05-06 19:09 41.25174 21.60391 19760 ft 344 kts 128°
2026-05-06 19:09 41.23760 21.62954 19431 ft 343 kts 128°
2026-05-06 19:09 41.22345 21.65506 19097 ft 341 kts 128°
2026-05-06 19:09 41.20938 21.68036 18777 ft 340 kts 128°
2026-05-06 19:10 41.19531 21.70560 18427 ft 340 kts 128°
2026-05-06 19:10 41.18123 21.73083 18078 ft 339 kts 128°
2026-05-06 19:10 41.16721 21.75593 17712 ft 338 kts 128°
2026-05-06 19:10 41.15340 21.78064 17366 ft 336 kts 128°
2026-05-06 19:11 41.13946 21.80555 17053 ft 334 kts 128°
2026-05-06 19:11 41.12562 21.83029 16705 ft 333 kts 128°
2026-05-06 19:11 41.11185 21.85486 16384 ft 331 kts 128°
2026-05-06 19:11 41.09818 21.87925 16053 ft 329 kts 128°
2026-05-06 19:12 41.08451 21.90359 15735 ft 328 kts 128°
2026-05-06 19:12 41.07090 21.92775 15474 ft 324 kts 128°
2026-05-06 19:12 41.05748 21.95137 15245 ft 319 kts 128°
2026-05-06 19:12 41.04412 21.97480 14932 ft 317 kts 128°
2026-05-06 19:13 41.03087 21.99802 14622 ft 314 kts 128°
2026-05-06 19:13 41.01776 22.02098 14339 ft 312 kts 128°
2026-05-06 19:13 41.00467 22.04389 14023 ft 311 kts 128°
2026-05-06 19:13 40.99161 22.06676 13693 ft 311 kts 128°
2026-05-06 19:14 40.97876 22.08923 13354 ft 310 kts 128°
2026-05-06 19:14 40.96581 22.11188 13020 ft 308 kts 128°
2026-05-06 19:14 40.95289 22.13447 12697 ft 307 kts 128°
2026-05-06 19:14 40.94003 22.15693 12388 ft 305 kts 128°
2026-05-06 19:15 40.92724 22.17925 12081 ft 304 kts 128°
2026-05-06 19:15 40.91451 22.20146 11766 ft 302 kts 128°
2026-05-06 19:15 40.90184 22.22353 11454 ft 301 kts 128°
2026-05-06 19:15 40.88921 22.24552 11148 ft 300 kts 128°
2026-05-06 19:16 40.87663 22.26742 10841 ft 299 kts 128°
2026-05-06 19:16 40.86406 22.28928 10532 ft 298 kts 128°
2026-05-06 19:16 40.85155 22.31102 10226 ft 297 kts 128°
2026-05-06 19:16 40.83919 22.33251 10087 ft 289 kts 128°
2026-05-06 19:17 40.82704 22.35360 9794 ft 288 kts 128°
2026-05-06 19:17 40.81493 22.37463 9490 ft 287 kts 128°
2026-05-06 19:17 40.80288 22.39551 9184 ft 285 kts 128°
2026-05-06 19:17 40.79105 22.41600 8901 ft 284 kts 128°
2026-05-06 19:18 40.77909 22.43667 8613 ft 282 kts 128°
2026-05-06 19:18 40.76957 22.45910 8328 ft 281 kts 107°
2026-05-06 19:18 40.76469 22.48383 8093 ft 278 kts 104°
2026-05-06 19:18 40.76010 22.50861 7807 ft 276 kts 104°
2026-05-06 19:19 40.75556 22.53313 7527 ft 275 kts 104°
2026-05-06 19:19 40.75095 22.55765 7250 ft 275 kts 104°
2026-05-06 19:19 40.74632 22.58206 6966 ft 274 kts 105°
2026-05-06 19:19 40.74165 22.60646 6676 ft 274 kts 105°
2026-05-06 19:20 40.73698 22.63076 6398 ft 273 kts 105°
2026-05-06 19:20 40.73231 22.65501 6097 ft 272 kts 105°
2026-05-06 19:20 40.72769 22.67887 5813 ft 271 kts 105°
2026-05-06 19:20 40.72302 22.70294 5521 ft 271 kts 105°
2026-05-06 19:21 40.71834 22.72699 5234 ft 270 kts 105°
2026-05-06 19:21 40.71649 22.75111 5075 ft 264 kts 80°
2026-05-06 19:21 40.72347 22.77305 4920 ft 259 kts 59°
2026-05-06 19:21 40.73248 22.79352 4686 ft 256 kts 62°
2026-05-06 19:22 40.74052 22.81404 4577 ft 248 kts 65°
2026-05-06 19:22 40.74779 22.83437 4462 ft 241 kts 67°
2026-05-06 19:22 40.75397 22.85453 4349 ft 233 kts 71°
2026-05-06 19:22 40.75680 22.87487 4182 ft 228 kts 99°
2026-05-06 19:23 40.75050 22.89320 3999 ft 220 kts 139°
2026-05-06 19:23 40.73718 22.90209 3806 ft 214 kts 166°
2026-05-06 19:23 40.72277 22.90662 3592 ft 212 kts 168°
2026-05-06 19:23 40.70863 22.91082 3514 ft 203 kts 167°
2026-05-06 19:24 40.69508 22.91503 3300 ft 198 kts 167°
2026-05-06 19:24 40.68178 22.91925 3041 ft 195 kts 167°
2026-05-06 19:24 40.66866 22.92344 2786 ft 193 kts 167°
2026-05-06 19:24 40.65567 22.92758 2533 ft 190 kts 167°
2026-05-06 19:25 40.64290 22.93165 2305 ft 188 kts 167°
2026-05-06 19:25 40.63039 22.93564 2052 ft 186 kts 167°
2026-05-06 19:25 40.61792 22.93962 1815 ft 183 kts 166°
2026-05-06 19:25 40.60579 22.94349 1547 ft 175 kts 166°
2026-05-06 19:26 40.59440 22.94713 1348 ft 162 kts 166°
2026-05-06 19:26 40.58402 22.95044 1121 ft 149 kts 166°
2026-05-06 19:26 40.57416 22.95359 952 ft 144 kts 166°
2026-05-06 19:26 40.56417 22.95681 756 ft 150 kts 166°
2026-05-06 19:27 40.55397 22.96014 552 ft 151 kts 166°
2026-05-06 19:27 40.54388 22.96333 334 ft 148 kts 167°
2026-05-06 19:27 40.53396 22.96645 163 ft 146 kts 167°
2026-05-06 19:27 40.52409 22.96961 30 ft 140 kts 167°
2026-05-06 19:28 40.51572 22.97223 29 ft 103 kts 166°
2026-05-06 19:28 40.51076 22.97381 27 ft 34 kts 166°
2026-05-06 19:28 40.50959 22.97491 27 ft 18 kts 90°
2026-05-06 19:28 40.51044 22.97574 28 ft 17 kts 349°
2026-05-06 19:29 40.51119 22.97550 28 ft 10 kts 346°
2026-05-06 19:29 40.51201 22.97524 28 ft 14 kts 346°
2026-05-06 19:29 40.51305 22.97491 28 ft 16 kts 346°
2026-05-06 19:29 40.51408 22.97458 28 ft 15 kts 346°
2026-05-06 19:30 40.51507 22.97426 28 ft 14 kts 346°
2026-05-06 19:30 40.51601 22.97397 28 ft 14 kts 346°
2026-05-06 19:30 40.51692 22.97368 28 ft 13 kts 346°
2026-05-06 19:30 40.51779 22.97340 28 ft 13 kts 346°
2026-05-06 19:31 40.51867 22.97312 26 ft 14 kts 346°
2026-05-06 19:31 40.51980 22.97276 28 ft 18 kts 346°
2026-05-06 19:31 40.52231 22.97197 27 ft 18 kts 346°
2026-05-06 19:32 40.52355 22.97170 27 ft 18 kts 19°
2026-05-06 19:32 40.52400 22.97312 28 ft 16 kts 78°
2026-05-06 19:32 40.52388 22.97435 27 ft 12 kts 83°
2026-05-06 19:32 40.52402 22.97463 27 ft 0 kts 45°